[[{"header":{"parameterUnit":"m.s-1","parameterCategory":1,"la1":30.2991,"la2":30.254,"lo1":-89.0895,"lo2":-89.0444,"dy":0.0017,"dx":0.0017,"nx":28,"ny":28,"refTime":"2025-03-14T09:00:00:Z","depth":0,"parameterNumber":2,"parameterNumberName":"U-component_of_WINDS"},"data":[0,0,0,0,0,0,0,0,0,0,0,0,0,0,0,0,0,0,0,0,0,0,0,0,0,0,0,0,0,0,0,0,0,0,0,0,0,0,0,0,0,0,0,0,0,0,0,0,0,0,0,0,0,0,0,0,0,0,-1.1671,-1.1671,0,-1.1653,-1.1653,-1.1652,-1.1623,-1.1623,-1.1622,-1.1622,-1.1604,-1.1605,-1.1605,0,0,0,0,0,0,0,0,0,0,0,0,0,-1.1683,-1.1683,-1.1671,-1.1671,-1.1671,-1.1653,-1.1653,-1.1652,-1.1623,-1.1623,-1.1622,-1.1621,-1.1604,-1.1604,-1.1605,0,0,0,0,0,0,0,0,0,0,0,0,0,-1.1673,-1.1683,-1.1671,-1.1654,-1.1652,-1.1653,-1.1653,-1.1652,-1.1623,-1.1623,-1.1622,-1.1621,-1.1604,-1.1604,-1.1605,-1.1621,0,0,-1.1605,-1.1605,0,0,0,0,0,0,0,0,-1.1673,-1.1672,-1.1657,-1.1655,-1.1653,-1.1639,-1.165,-1.1642,-1.1624,-1.1634,-1.1622,-1.1621,-1.1617,-1.1616,-1.1614,-1.162,-1.1619,-1.1605,-1.1605,-1.1605,-1.1605,0,0,0,0,0,0,0,-1.1674,-1.1673,-1.1664,-1.1656,-1.1654,-1.1648,-1.1646,-1.1649,-1.163,-1.1633,-1.1631,-1.1629,-1.1616,-1.1614,-1.1614,-1.1619,-1.1605,-1.1605,-1.1605,-1.1605,-1.1639,-1.164,0,0,0,0,0,0,-1.1677,-1.1674,-1.1664,-1.1663,-1.1661,-1.1648,-1.1646,-1.1645,-1.163,-1.1627,-1.163,-1.1628,-1.1615,-1.1614,-1.1613,-1.1632,-1.1605,-1.1605,-1.1605,-1.1639,-1.164,-1.1641,0,0,0,0,0,0,-1.1677,-1.1676,-1.1665,-1.1668,-1.1666,-1.1649,-1.1648,-1.1645,-1.1643,-1.1628,-1.1625,-1.1632,-1.1614,-1.1613,-1.1619,-1.1631,-1.1605,-1.1605,-1.1637,-1.1639,-1.164,-1.167,0,0,0,0,0,0,-1.1678,-1.1677,-1.1682,-1.1668,-1.1666,-1.1671,-1.1649,-1.1645,-1.1643,-1.164,-1.1628,-1.1626,-1.1613,-1.162,-1.162,-1.1631,-1.1605,-1.1636,-1.1638,-1.164,-1.1668,-1.1672,-1.1676,0,0,0,0,0,-1.1678,-1.1691,-1.1682,-1.1682,-1.1672,-1.1672,-1.1671,-1.1655,-1.1644,-1.165,-1.164,-1.1626,-1.163,-1.162,-1.162,-1.1631,-1.1636,-1.1638,-1.164,-1.1666,-1.1671,-1.1676,0,0,0,0,0,0,-1.1707,-1.1689,-1.1679,-1.1688,-1.1682,-1.1667,-1.1673,-1.1661,-1.1659,-1.1656,-1.1638,-1.1636,-1.1645,-1.1639,-1.1629,-1.1647,-1.1631,-1.1633,-1.1651,-1.1656,-1.166,-1.1661,-1.1605,0,0,0,0,0,-1.1714,-1.1715,-1.1699,-1.1708,-1.1706,-1.169,-1.169,-1.1679,-1.1672,-1.1669,-1.166,-1.1654,-1.1654,-1.1655,-1.1654,-1.1667,-1.1665,-1.1675,-1.1679,-1.1682,-1.1684,-1.1692,-1.1697,-1.1647,-1.1647,-1.1647,0,0,-1.1729,-1.1719,-1.1721,-1.1714,-1.1708,-1.171,-1.1688,-1.1691,-1.1693,-1.167,-1.1675,-1.1669,-1.1662,-1.1672,-1.1676,-1.1667,-1.1697,-1.1685,-1.1687,-1.1687,-1.1694,-1.1699,-1.1703,-1.1648,-1.1648,-1.1648,0,0,-1.1757,-1.175,-1.1757,-1.1751,-1.1743,-1.1733,-1.1735,-1.1722,-1.1717,-1.1722,-1.1706,-1.1708,-1.1708,-1.1704,-1.1702,-1.1731,-1.1718,-1.1731,-1.1752,-1.1759,-1.1763,-1.1767,-1.1778,-1.1782,-1.1733,-1.1733,-1.1733,0,-1.1777,-1.1778,-1.1762,-1.1766,-1.1764,-1.1744,-1.1752,-1.1748,-1.1739,-1.1739,-1.1729,-1.173,-1.1723,-1.1733,-1.174,-1.1739,-1.1741,-1.1732,-1.1764,-1.1767,-1.177,-1.178,-1.1785,-1.1735,-1.1735,-1.1734,-1.1734,0,-1.1803,-1.1805,-1.1812,-1.1805,-1.1804,-1.181,-1.1795,-1.1796,-1.1786,-1.1778,-1.1784,-1.1776,-1.1774,-1.1776,-1.1765,-1.1784,-1.1779,-1.1767,-1.175,-1.1777,-1.1786,-1.179,-1.1737,-1.1737,-1.1736,-1.1736,0,0,-1.1848,-1.1832,-1.1835,-1.1832,-1.1822,-1.1823,-1.1829,-1.1827,-1.1829,-1.1824,-1.1829,-1.1831,-1.182,-1.1818,-1.1807,-1.1814,-1.1839,-1.1801,-1.1801,-1.1809,-1.186,-1.1869,-1.1874,-1.183,-1.1831,-1.1832,-1.1861,0,-1.1874,-1.1882,-1.1869,-1.1881,-1.1883,-1.1864,-1.187,-1.1865,-1.1857,-1.1859,-1.1851,-1.1852,-1.1838,-1.1836,-1.1842,-1.1834,-1.1849,-1.1832,-1.1836,-1.1836,-1.1838,-1.1879,-1.1888,-1.1916,-1.1864,-1.1865,-1.1866,0,-1.1905,-1.1902,-1.1915,-1.1905,-1.1905,-1.191,-1.1908,-1.1909,-1.1904,-1.1898,-1.1897,-1.1884,-1.1891,-1.1874,-1.1883,-1.1872,-1.1873,-1.187,-1.1871,-1.187,-1.1852,-1.188,-1.1925,-1.1929,-1.1871,-1.1871,-1.187,0,-1.1937,-1.1936,-1.1944,-1.1942,-1.1931,-1.1935,-1.1931,-1.1924,-1.1924,-1.1923,-1.1923,-1.1922,-1.1921,-1.1922,-1.191,-1.1899,-1.1921,-1.1903,-1.1917,-1.1917,-1.1922,-1.1922,-1.1968,-1.1923,-1.1923,-1.1923,-1.1923,0,-1.1968,-1.1976,-1.1958,-1.1963,-1.1972,-1.1957,-1.1967,-1.1961,-1.1956,-1.196,-1.1944,-1.1949,-1.1933,-1.1936,-1.1927,-1.1937,-1.1937,-1.1933,-1.193,-1.1934,-1.1935,-1.1934,-1.1932,-1.1924,-1.1924,-1.1923,-1.1923,0,-1.2004,-1.1993,-1.2,-1.1989,-1.1987,-1.1994,-1.1985,-1.199,-1.1982,-1.1987,-1.1988,-1.1976,-1.1979,-1.1967,-1.1968,-1.1962,-1.1977,-1.1971,-1.1978,-1.1976,-1.1991,-1.199,-1.2038,-1.2044,-1.1995,-1.1996,-1.1996,0,-1.2024,-1.2031,-1.2021,-1.2022,-1.2019,-1.2021,-1.2021,-1.2008,-1.2009,-1.2004,-1.2009,-1.2011,-1.2011,-1.2017,-1.2009,-1.201,-1.2004,-1.2021,-1.2004,-1.2008,-1.2005,-1.2004,-1.2005,-1.2024,-1.2025,-1.2025,-1.2026,0,-1.2062,-1.2056,-1.2057,-1.2056,-1.2056,-1.2055,-1.2053,-1.2055,-1.204,-1.2042,-1.2045,-1.2045,-1.2047,-1.2049,-1.2048,-1.2045,-1.2033,-1.2031,-1.2035,-1.2038,-1.2043,-1.2041,-1.1988,-1.203,-1.203,-1.2029,-1.2029,-1.2029,-1.2091,-1.2096,-1.2091,-1.2092,-1.2089,-1.2088,-1.2092,-1.2085,-1.2086,-1.2086,-1.2078,-1.2083,-1.2079,-1.2077,-1.2075,-1.2079,-1.2071,-1.2076,-1.2077,-1.2078,-1.2081,-1.2042,-1.2079,-1.2079,-1.2079,-1.2079,-1.2079,0,-1.2128,-1.2124,-1.2126,-1.2123,-1.2125,-1.2114,-1.2111,-1.2113,-1.2117,-1.2115,-1.2116,-1.212,-1.2122,-1.2115,-1.2116,-1.2121,-1.2116,-1.2122,-1.2121,-1.2121,-1.2088,-1.2085,-1.2126,-1.2126,-1.2126,-1.2126,-1.2126,-1.2126,-1.2148,-1.2156,-1.215,-1.2157,-1.2153,-1.2157,-1.2157,-1.2156,-1.2154,-1.2159,-1.216,-1.2156,-1.2151,-1.2153,-1.2155,-1.2153,-1.2154,-1.2162,-1.2158,-1.2128,-1.2123,-1.2119,-1.2116,-1.2163,-1.2163,-1.2191,-1.2191,-1.2192]},{"header":{"parameterUnit":"m.s-1","parameterCategory":1,"la1":30.2991,"la2":30.254,"lo1":-89.0895,"lo2":-89.0444,"dy":0.0017,"dx":0.0017,"nx":28,"ny":28,"refTime":"2025-03-14T09:00:00:Z","depth":0,"parameterNumber":3,"parameterNumberName":"V-component_of_WINDS"},"data":[0,0,0,0,0,0,0,0,0,0,0,0,0,0,0,0,0,0,0,0,0,0,0,0,0,0,0,0,0,0,0,0,0,0,0,0,0,0,0,0,0,0,0,0,0,0,0,0,0,0,0,0,0,0,0,0,0,0,2.9041,2.9041,0,2.9013,2.9013,2.9013,2.8984,2.8983,2.8983,2.8982,2.8951,2.8951,2.8951,0,0,0,0,0,0,0,0,0,0,0,0,0,2.9068,2.9068,2.9041,2.9041,2.9041,2.9013,2.9013,2.9012,2.8984,2.8983,2.8983,2.8982,2.8952,2.8951,2.895,0,0,0,0,0,0,0,0,0,0,0,0,0,2.905,2.9068,2.9041,2.9023,2.9021,2.9013,2.9013,2.9012,2.8984,2.8983,2.8983,2.8982,2.8952,2.8951,2.895,2.8958,0,0,2.8948,2.8948,0,0,0,0,0,0,0,0,2.9051,2.9049,2.9026,2.9024,2.9022,2.9001,2.9011,2.8994,2.8984,2.8998,2.8982,2.8982,2.8968,2.8966,2.8962,2.8956,2.8955,2.8948,2.8948,2.8948,2.8947,0,0,0,0,0,0,0,2.9052,2.905,2.903,2.9026,2.9023,2.9016,2.9012,2.9008,2.8987,2.8997,2.8994,2.8992,2.8967,2.8963,2.8961,2.8955,2.8948,2.8948,2.8947,2.8947,2.8955,2.8956,0,0,0,0,0,0,2.9057,2.9051,2.9031,2.9029,2.9036,2.9016,2.9012,2.9008,2.8987,2.8983,2.8992,2.899,2.8964,2.8962,2.896,2.8969,2.8948,2.8947,2.8946,2.8954,2.8955,2.8956,0,0,0,0,0,0,2.9057,2.9055,2.9032,2.904,2.9036,2.9016,2.9012,2.9008,2.9004,2.8983,2.8979,2.8992,2.8964,2.8961,2.8959,2.8967,2.8947,2.8946,2.8954,2.8955,2.8955,2.8985,0,0,0,0,0,0,2.9058,2.9056,2.9059,2.904,2.9036,2.9032,2.9013,2.9008,2.9003,2.9001,2.8982,2.8978,2.8963,2.896,2.8958,2.8966,2.8945,2.8953,2.8954,2.8955,2.8983,2.8987,2.899,0,0,0,0,0,2.9059,2.9067,2.9059,2.9057,2.9039,2.9033,2.903,2.9013,2.9004,2.9007,2.8994,2.8979,2.8966,2.896,2.8958,2.8965,2.8952,2.8954,2.8955,2.8982,2.8986,2.899,0,0,0,0,0,0,2.9086,2.9064,2.9055,2.9057,2.9047,2.9028,2.9031,2.9018,2.901,2.9008,2.8987,2.8983,2.8984,2.8974,2.8968,2.8972,2.8957,2.8958,2.8978,2.8982,2.8986,2.8988,2.8945,0,0,0,0,0,2.9093,2.909,2.907,2.9074,2.907,2.9051,2.9048,2.9036,2.9024,2.9019,2.9006,2.8995,2.8989,2.8985,2.8978,2.8982,2.8978,2.8985,2.8989,2.8992,2.8993,2.8995,2.8999,2.896,2.896,2.896,0,0,2.9105,2.9093,2.9092,2.9079,2.907,2.9067,2.9048,2.9045,2.9043,2.9019,2.9017,2.9007,2.8993,2.8994,2.8994,2.8986,2.9003,2.8993,2.8996,2.8995,2.8997,2.9001,2.9004,2.8961,2.8961,2.8961,0,0,2.9127,2.9117,2.912,2.9112,2.9098,2.9086,2.9087,2.907,2.9063,2.906,2.9043,2.9039,2.9028,2.902,2.9014,2.9034,2.902,2.9032,2.905,2.9052,2.9056,2.9058,2.9066,2.907,2.9033,2.9033,2.9033,0,2.9145,2.914,2.9123,2.9122,2.9117,2.9096,2.9099,2.9091,2.9076,2.9073,2.9064,2.9052,2.904,2.904,2.9046,2.9041,2.9042,2.9034,2.9057,2.9059,2.9061,2.9069,2.9072,2.9035,2.9035,2.9035,2.9034,0,2.9163,2.916,2.9164,2.9151,2.9146,2.9147,2.913,2.9127,2.9116,2.9104,2.9103,2.9089,2.908,2.9078,2.9067,2.9077,2.9073,2.9061,2.9046,2.9067,2.9074,2.9076,2.9037,2.9037,2.9036,2.9036,0,0,2.9201,2.9179,2.9181,2.9175,2.916,2.9157,2.9157,2.9149,2.9147,2.9138,2.9138,2.913,2.9119,2.9112,2.9099,2.9102,2.912,2.9089,2.9089,2.9097,2.9132,2.9142,2.9146,2.9111,2.9111,2.9112,2.9134,0,2.9221,2.9221,2.9205,2.9209,2.9207,2.9187,2.9187,2.9178,2.9167,2.9164,2.9152,2.9147,2.9133,2.9129,2.913,2.9118,2.9127,2.9116,2.9111,2.9111,2.9116,2.9149,2.9159,2.918,2.9136,2.9136,2.9137,0,2.9244,2.9237,2.9242,2.9227,2.9225,2.9226,2.9218,2.9214,2.9203,2.9195,2.9189,2.9175,2.9174,2.9159,2.9158,2.9151,2.9148,2.9141,2.9142,2.9141,2.9126,2.915,2.9187,2.919,2.9141,2.914,2.914,0,2.9273,2.9265,2.9266,2.9262,2.9245,2.9246,2.9238,2.9227,2.9223,2.9215,2.9213,2.9205,2.9201,2.9195,2.918,2.917,2.9181,2.9164,2.9175,2.9175,2.9178,2.9178,2.9215,2.9175,2.9175,2.9175,2.9174,0,2.9298,2.9301,2.9279,2.9281,2.9284,2.9266,2.927,2.9261,2.9251,2.925,2.9232,2.9231,2.921,2.9207,2.9194,2.9196,2.9194,2.9188,2.9185,2.919,2.9191,2.9188,2.9187,2.9175,2.9175,2.9175,2.9175,0,2.9331,2.9316,2.9317,2.9301,2.9297,2.93,2.9286,2.9287,2.9276,2.9275,2.9273,2.9256,2.9251,2.9235,2.9226,2.9218,2.9224,2.9217,2.9228,2.9226,2.9238,2.9238,2.9275,2.928,2.9235,2.9236,2.9236,0,2.9348,2.9351,2.9335,2.9334,2.9328,2.9325,2.9322,2.9304,2.9301,2.9289,2.9291,2.9286,2.9281,2.9275,2.9261,2.9254,2.9248,2.9262,2.9247,2.9253,2.9249,2.925,2.9251,2.9265,2.9266,2.9266,2.9266,0,2.9381,2.9374,2.937,2.9364,2.936,2.9354,2.9347,2.9347,2.9328,2.9325,2.9321,2.9317,2.9309,2.9304,2.9296,2.9288,2.9274,2.9271,2.9273,2.928,2.9287,2.9284,2.9238,2.9271,2.927,2.927,2.927,2.9269,2.9407,2.9409,2.9399,2.9395,2.9388,2.9383,2.9383,2.9372,2.9368,2.9361,2.9351,2.9348,2.9338,2.9325,2.9319,2.9317,2.9309,2.9312,2.9313,2.9314,2.9317,2.9286,2.9315,2.9315,2.9314,2.9314,2.9314,0,2.944,2.9432,2.9429,2.9421,2.9418,2.9406,2.9398,2.9397,2.9395,2.9387,2.9382,2.9378,2.9374,2.936,2.9354,2.9355,2.9349,2.9354,2.9354,2.9353,2.9324,2.9323,2.9359,2.9359,2.9359,2.9359,2.9359,2.9359,2.9457,2.9459,2.9451,2.9451,2.9443,2.9441,2.9438,2.9433,2.9426,2.9423,2.9419,2.9411,2.94,2.9394,2.9389,2.9385,2.9384,2.9392,2.9386,2.9359,2.9355,2.9351,2.935,2.9392,2.9392,2.9416,2.9416,2.9416]}]]